Printer-friendly version
Follow the MPC on Twitter Follow the MPC on Facebook The MPC blog
Minor Planet Center

MPEC 2010-C36 : 2010 CK1

The following Minor Planet Electronic Circular may be linked-to from your own Web pages, but must not otherwise be redistributed electronically.

A form allowing access to any MPEC is at the bottom of this page.


Read MPEC 2010-C35 Read MPEC 2010-C37


M.P.E.C. 2010-C36                                Issued 2010 Feb. 10, 00:36 UT

     The Minor Planet Electronic Circulars contain information on unusual
         minor planets and routine data on comets.  They are published
   on behalf of Commission 20 of the International Astronomical Union by the
          Minor Planet Center, Smithsonian Astrophysical Observatory,
                          Cambridge, MA 02138, U.S.A.

             Prepared using the Tamkin Foundation Computer Network

                              MPC@CFA.HARVARD.EDU
          URL http://www.cfa.harvard.edu/iau/mpc.html  ISSN 1523-6714

                                   2010 CK1

Observations:
     K10C01K* C2010 02 09.29230 08 39 28.33 +04 00 19.5          19.0 V EC036703
     K10C01K  C2010 02 09.29900 08 39 26.89 +04 02 47.8          18.6 V EC036703
     K10C01K  C2010 02 09.30571 08 39 25.52 +04 05 15.7          18.3 V EC036703
     K10C01K  C2010 02 09.31242 08 39 24.08 +04 07 42.4          18.9 V EC036703
     K10C01K  C2010 02 09.38185 08 39 09.89 +04 33 19.1          19.1 V EC036703
     K10C01K  C2010 02 09.38276 08 39 09.74 +04 33 39.2          19.2 V EC036703
     K10C01K  C2010 02 09.38370 08 39 09.60 +04 34 00.0                 EC036703
     K10C01K KC2010 02 09.90952 08 37 46.53 +07 55 34.0                 EC036J95
     K10C01K KC2010 02 09.91035 08 37 46.37 +07 55 53.3                 EC036J95
     K10C01K KC2010 02 09.91115 08 37 46.20 +07 56 12.2                 EC036J95
     K10C01K KC2010 02 09.91340 08 37 45.77 +07 57 06.0                 EC036J95
     K10C01K KC2010 02 09.91516 08 37 45.38 +07 57 47.9          19.0 R EC036J95

Observer details:
703 Catalina Sky Survey.  Observer R. E. Hill.  Measurers J. D. Ahern,
    E. C. Beshore, A. Boattini, G. J. Garradd, A. R. Gibbs, A. D. Grauer,
    R. E. Hill, R. A. Kowalski, S. M. Larson, R. H. McNaught.  0.68-m Schmidt
    + CCD.
J95 Great Shefford.  Observer P. Birtwhistle.  0.40-m f/6.0 Schmidt-Cassegrain
    + CCD.

Orbital elements:
2010 CK1                                                 Earth MOID = 0.0539 AU
Epoch 2010 Jan. 4.0 TT = JDT 2455200.5                  MPC
M 274.37618              (2000.0)            P               Q
n   0.80310647     Peri.   77.83051     -0.70591125     +0.64788245
a   1.1462710      Node   141.45625     -0.68118008     -0.73173316
e   0.2144061      Incl.   27.34734     +0.19412113     -0.21169534
P   1.23           H   23.7           G   0.15           U   8
Residuals in seconds of arc
100209 703  0.7+  0.5-    100209 703  0.6-  0.0     100209 J95  0.1-  0.0
100209 703  0.1-  0.4+    100209 703  0.1-  0.1-    100209 J95  0.2-  0.2-
100209 703  0.1+  0.7+    100209 703  0.7+  0.2-    100209 J95  0.4+  0.1-
100209 703  0.7-  0.4-    100209 J95  0.3-  0.6+    100209 J95  0.1+  0.3-

Ephemeris:
2010 CK1                 a,e,i = 1.15, 0.21, 27                  q = 0.9005
Date    TT    R. A. (2000) Decl.     Delta      r     Elong.  Phase     V
2010 02 03    08 51.25   -20 43.2    0.111    1.076   142.5    33.9    20.5
2010 02 04    08 49.90   -18 12.2    0.103    1.072   145.1    31.7    20.3
2010 02 05    08 48.39   -15 16.6    0.0961   1.069   148.1    29.2    20.0
2010 02 06    08 46.70   -11 51.4    0.0891   1.065   151.3    26.4    19.8
2010 02 07    08 44.81   -07 51.4    0.0826   1.062   155.0    23.1    19.5
2010 02 08    08 42.68   -03 10.7    0.0765   1.058   158.8    19.7    19.2
2010 02 09    08 40.25   +02 16.2    0.0711   1.055   162.5    16.3    19.0
2010 02 10    08 37.47   +08 33.0    0.0665   1.051   165.0    14.0    18.7
2010 02 11    08 34.25   +15 39.6    0.0629   1.048   164.7    14.4    18.6
2010 02 12    08 30.47   +23 30.0    0.0604   1.044   160.7    18.3    18.6
2010 02 13    08 25.98   +31 49.9    0.0591   1.041   154.2    24.4    18.8
2010 02 14    08 20.54   +40 18.5    0.0592   1.037   146.6    31.6    19.0
2010 02 15    08 13.82   +48 32.8    0.0605   1.034   138.8    39.0    19.2
2010 02 16    08 05.28   +56 12.8    0.0631   1.031   131.3    46.1    19.5
2010 02 17    07 54.10   +63 05.7    0.0668   1.027   124.3    52.6    19.8
2010 02 18    07 38.84   +69 05.5    0.0713   1.024   118.1    58.3    20.1
2010 02 19    07 16.94   +74 11.3    0.0766   1.021   112.7    63.3    20.4
2010 02 20    06 43.55   +78 23.3    0.0824   1.017   108.0    67.6    20.7
2010 02 21    05 49.59   +81 38.3    0.0887   1.014   103.9    71.2    21.0
2010 02 22    04 22.78   +83 44.0    0.0954   1.011   100.4    74.3    21.2
2010 02 23    02 29.61   +84 22.4    0.102    1.007    97.3    76.9    21.5

Timothy B. Spahr             (C) Copyright 2010 MPC           M.P.E.C. 2010-C36

Read MPEC 2010-C35 Read MPEC 2010-C37


MPEC number:

Enter an MPEC number in one of the following forms:

  • 1997-B01 (the full form)
  • J97B01 (the packed version of the full form)
  • B01 (the abbreviated form)

Valid HTML 4.01!